Regional Weather Roundup
Issued by NWS State College, PA

Home | Current Version | Previous Version | Text Only | Print | Product List | Glossary On
Versions: 1 2 3 4 5 6 7 8 9 10 11 12 13 14 15 16 17 18 19 20 21 22 23 24 25 26 27 28 29 30 31 32 33 34 35 36 37 38 39 40 41 42 43 44 45 46 47 48 49 50
000
ASUS41 KCTP 201303
RWRCTP

REGIONAL WEATHER ROUNDUP
NATIONAL WEATHER SERVICE STATE COLLEGE PA
900 AM EDT SUN AUG 20 2017

Note: "fair" indicates few or no clouds below 12,000 feet with no
significant weather and/or obstructions to visibility.

* = STATION THAT DOES NOT REPORT PRECIPITATION /E.G. RAIN...SNOW...ETC/
    THUNDER OR FOG.

PAZ002>004-007>009-013>016-020>023-029>032-201400-
WESTERN PENNSYLVANIA

CITY           SKY/WX    TMP DP  RH WIND       PRES   REMARKS
ERIE           SUNNY     69  60  73 S8        30.10R
MEADVILLE      SUNNY     65  61  87 S6        30.14R
FRANKLIN*      SUNNY     66  59  77 SW5       30.14S
NEW CASTLE     PTSUNNY   62  62 100 CALM      30.15R FOG
BEAVER COUNTY  NOT AVBL
BUTLER*        CLOUDY    61  61 100 CALM      30.16R VSB 1/4
PITTSBURGH INT FOG       62  62 100 CALM      30.14R VSB 1/16
PITTSBURGH     FOG       62  61  96 CALM      30.14R VSB<1/4
INDIANA*       FOG       61  61 100 CALM      30.18S VSB 0
LATROBE        FOG       59  59 100 CALM      30.16R VSB 0
WASHINGTON CO* SUNNY     63  61  94 CALM      30.14S
$$

PAZ004>006-010>012-017>019-024>028-033>037-041-042-045-046-049>053-201400-
CENTRAL PENNSYLVANIA

CITY           SKY/WX    TMP DP  RH WIND       PRES   REMARKS
BRADFORD       MOSUNNY   63  60  90 W3        30.15S
DUBOIS         FOG       59  57  93 CALM      30.15R VSB<1/4
CLEARFIELD     FOG       59  59 100 SW3       30.16R VSB<1/4
JOHNSTOWN      SUNNY     62  61  96 S3        30.18R FOG
ALTOONA        SUNNY     64  62  93 SW5       30.17R
STATE COLLEGE  SUNNY     63  59  88 CALM      30.14R
WILLIAMSPORT   PTSUNNY   66  61  84 NW9       30.10S
SELINSGROVE    SUNNY     69  63  81 W5        30.11S
FT INDIANTOWN  SUNNY     70  60  70 SW5       30.10R
CAPITAL CITY   SUNNY     71  59  65 W7        30.11R
HARRISBURG     SUNNY     71  61  70 NW9       30.10R
YORK           SUNNY     69  64  84 W3        30.11S
$$

PAZ038>040-043-044-047-048-054-055-060>062-067>071-201400-
EASTERN PENNSYLVANIA

CITY           SKY/WX    TMP DP  RH WIND       PRES   REMARKS
SCRANTON       MOSUNNY   66  60  81 W5        30.10R
MOUNT POCONO     N/A     61  58  90 NW14G22   30.11R
ALLENTOWN      SUNNY     69  62  78 W5        30.08R
QUAKERTOWN*    SUNNY     68  61  77 NW7       30.10R
READING        MOSUNNY   69  65  86 W7        30.09R
LANCASTER      SUNNY     69  64  84 W7        30.11R
COATESVILLE    SUNNY     68  63  83 N10       30.11S
POTTSTOWN      SUNNY     68  62  81 NW9       30.10S
BLUE BELL      SUNNY     68  61  77 NW9       30.10R
DOYLESTOWN     SUNNY     70  61  73 NW9       30.08R
WILLOW GROVE   NOT AVBL
NORTH PHILA    SUNNY     74  62  66 NW8       30.09R
PHILADELPHIA   MOSUNNY   73  59  61 N8        30.09R
$$




USA.gov is the U.S. government's official web portal to all federal, state and local government web resources and services.